Overview Statistics Trail Chart Weather Telemetry Raw packets
 

This is the latest recevied weather packets stored in our database for station/object W0WC. If no packets are shown the sender has not sent any weather packets the latest 10 day(s).

<< 44 45 46 47 48 49 50 >>
Time Temp. Humidity Pressure Rain* Wind** Luminosity Snow
1788386894 38.33° C 32% 1013.9 hPa 0 mm - 334 W/m² -
1788386593 38.89° C 30% 1013.9 hPa 0 mm - 350 W/m² -
1788386288 38.89° C 30% 1013.9 hPa 0 mm - 362 W/m² -
1788386001 37.22° C 33% 1013.9 hPa 0 mm - 389 W/m² -
1788385685 37.22° C 34% 1014.1 hPa 0 mm - 404 W/m² -
1788385383 37.78° C 33% 1014.2 hPa 0 mm - 91 W/m² -
1788385079 38.33° C 32% 1014.1 hPa 0 mm - 100 W/m² -
1788384774 38.33° C 32% 1014.2 hPa 0 mm - 438 W/m² -
1788384473 37.78° C 32% 1014.4 hPa 0 mm - 475 W/m² -
1788384170 37.22° C 33% 1014.6 hPa 0 mm - 519 W/m² -
1788383866 37.78° C 33% 1014.5 hPa 0 mm - 119 W/m² -
1788383562 38.33° C 32% 1014.6 hPa 0 mm - 512 W/m² -
1788383261 37.78° C 32% 1014.6 hPa 0 mm - 143 W/m² -
1788382956 38.89° C 30% 1014.7 hPa 0 mm - 192 W/m² -
1788382654 38.33° C 31% 1014.6 hPa 0 mm - 604 W/m² -
1788382350 38.89° C 31% 1014.8 hPa 0 mm - 595 W/m² -
1788382045 39.44° C 31% 1014.9 hPa 0 mm - 580 W/m² -
1788381740 39.44° C 31% 1014.8 hPa 0 mm - 580 W/m² -
1788381435 39.44° C 31% 1014.8 hPa 0 mm - 619 W/m² -
1788381135 38.89° C 32% 1014.9 hPa 0 mm - 615 W/m² -
1788380830 38.33° C 32% 1014.8 hPa 0 mm - 663 W/m² -
1788380527 37.78° C 33% 1015.1 hPa 0 mm - 481 W/m² -
1788380223 37.78° C 34% 1015.1 hPa 0 mm - 158 W/m² -
1788379922 37.78° C 34% 1015.4 hPa 0 mm - 706 W/m² -
1788379617 37.78° C 33% 1015.3 hPa 0 mm - 717 W/m² -

* Rain latest hour (hover to see other rain measurements)
** Current wind speed in m/s (hover to see current wind gust speed)